テナグラ彗星

C/2013 C2 ( Tenagra )

English version
Home page
Updated on May 20, 2019

---------------------------------------------------------------------

・ プロフィール

発見日 2013年2月14日
発見光度 19.0等
発見者 P. R. Holvorcem, M. Schwartz (Tenagra Observatory)

・ 写真集

・ 軌道要素

Epoch 2015 Sept. 15.0 TT = JDT 2457280.5
T 2015 Aug. 30.30210 TT                                 MPCW
q   9.1309449            (2000.0)            P               Q
n   0.01531403     Peri.  308.79115     -0.91034962     +0.24124870
a  16.0599113      Node   247.52493     -0.16367578     -0.95614863
e   0.4314449      Incl.   21.33907     -0.38009710     -0.16606885
P  64.36
From 436 observations 2013 Feb. 14-2019 May 8, mean residual 0".5.

・ 光度変化

        m1 = 4.0 + 5 logΔ + 10.0 log r

---------------------------------------------------------------------

軌道要素はM.P.E.C. 2019-J142に掲載されたものです。
光度グラフはComet for Windowsで作成したものです。

---------------------------------------------------------------------

Copyright(C) Seiichi Yoshida (comet@aerith.net). All rights reserved.